TimeEDT,TemperatureF,Dew PointF,Humidity,Sea Level PressureIn,VisibilityMPH,Wind Direction,Wind SpeedMPH,Gust SpeedMPH,PrecipitationIn,Events,Conditions,WindDirDegrees,DateUTC
12:15 AM,64.6,61.2,89,29.89,10.0,SW,3.5,-,N/A,,Clear,230,2013-08-02 04:15:00
12:35 AM,64.0,60.1,87,29.88,10.0,Calm,Calm,-,N/A,,Clear,0,2013-08-02 04:35:00
12:55 AM,60.8,58.6,93,29.88,10.0,Calm,Calm,-,N/A,,Clear,0,2013-08-02 04:55:00
1:16 AM,60.8,58.3,91,29.88,10.0,Calm,Calm,-,N/A,,Clear,0,2013-08-02 05:16:00
1:36 AM,60.1,57.9,93,29.87,10.0,Calm,Calm,-,N/A,,Mostly Cloudy,0,2013-08-02 05:36:00
1:56 AM,60.6,58.5,93,29.87,7.0,Calm,Calm,-,N/A,,Mostly Cloudy,0,2013-08-02 05:56:00
2:16 AM,60.1,58.1,93,29.86,5.0,Calm,Calm,-,N/A,,Mostly Cloudy,0,2013-08-02 06:16:00
2:36 AM,59.5,57.6,93,29.85,1.2,Calm,Calm,-,N/A,,Scattered Clouds,0,2013-08-02 06:36:00
2:56 AM,58.8,57.0,94,29.85,5.0,Calm,Calm,-,N/A,,Scattered Clouds,0,2013-08-02 06:56:00
3:16 AM,59.0,57.0,93,29.84,10.0,Calm,Calm,-,N/A,,Mostly Cloudy,0,2013-08-02 07:16:00
3:31 AM,58.3,56.3,93,29.84,5.0,Calm,Calm,-,N/A,,Scattered Clouds,0,2013-08-02 07:31:00
3:51 AM,57.9,55.9,93,29.84,10.0,Calm,Calm,-,N/A,,Clear,0,2013-08-02 07:51:00
4:12 AM,57.4,55.6,94,29.84,10.0,Calm,Calm,-,N/A,,Clear,0,2013-08-02 08:12:00
4:32 AM,56.8,55.0,94,29.83,7.0,Calm,Calm,-,N/A,,Clear,0,2013-08-02 08:32:00
4:52 AM,57.9,56.1,94,29.84,10.0,Calm,Calm,-,N/A,,Clear,0,2013-08-02 08:52:00
5:12 AM,57.2,55.4,94,29.84,10.0,Calm,Calm,-,N/A,,Clear,0,2013-08-02 09:12:00
5:32 AM,57.9,55.8,92,29.84,10.0,Calm,Calm,-,N/A,,Clear,0,2013-08-02 09:32:00
5:52 AM,57.7,55.9,94,29.84,10.0,Calm,Calm,-,N/A,,Clear,0,2013-08-02 09:52:00
6:12 AM,57.6,55.8,94,29.84,10.0,Calm,Calm,-,N/A,,Clear,0,2013-08-02 10:12:00
6:32 AM,57.9,55.9,93,29.83,10.0,Calm,Calm,-,N/A,,Scattered Clouds,0,2013-08-02 10:32:00
6:53 AM,58.3,56.5,94,29.84,10.0,Calm,Calm,-,N/A,,Clear,0,2013-08-02 10:53:00
7:13 AM,58.3,56.3,93,29.84,7.0,Calm,Calm,-,N/A,,Clear,0,2013-08-02 11:13:00
7:33 AM,60.6,58.8,94,29.84,10.0,Calm,Calm,-,N/A,,Scattered Clouds,0,2013-08-02 11:33:00
7:53 AM,62.8,60.3,91,29.84,10.0,Calm,Calm,-,N/A,,Scattered Clouds,0,2013-08-02 11:53:00
8:13 AM,63.1,60.1,90,29.83,10.0,Calm,Calm,-,N/A,,Scattered Clouds,0,2013-08-02 12:13:00
8:33 AM,64.0,61.0,90,29.84,10.0,Calm,Calm,-,N/A,,Mostly Cloudy,0,2013-08-02 12:33:00
8:53 AM,64.4,61.0,89,29.83,10.0,Calm,Calm,-,N/A,,Mostly Cloudy,0,2013-08-02 12:53:00
9:13 AM,64.4,59.9,85,29.85,10.0,ENE,5.8,-,N/A,,Mostly Cloudy,70,2013-08-02 13:13:00
9:33 AM,65.3,60.3,84,29.85,10.0,Calm,Calm,-,N/A,,Scattered Clouds,0,2013-08-02 13:33:00
9:54 AM,67.5,59.9,77,29.85,10.0,SSE,3.5,-,N/A,,Scattered Clouds,160,2013-08-02 13:54:00
10:14 AM,68.9,60.4,74,29.84,10.0,South,4.6,-,N/A,,Clear,190,2013-08-02 14:14:00
10:34 AM,68.2,59.5,74,29.84,10.0,SW,9.2,-,N/A,,Scattered Clouds,220,2013-08-02 14:34:00
10:54 AM,69.3,60.6,74,29.84,10.0,WSW,8.1,-,N/A,,Scattered Clouds,240,2013-08-02 14:54:00
11:14 AM,70.2,60.3,71,29.84,10.0,SW,10.4,-,N/A,,Scattered Clouds,230,2013-08-02 15:14:00
11:34 AM,67.8,58.8,73,29.84,10.0,SSW,10.4,-,N/A,,Mostly Cloudy,200,2013-08-02 15:34:00
11:54 AM,69.4,60.6,73,29.84,10.0,SSW,10.4,-,N/A,,Overcast,200,2013-08-02 15:54:00
12:14 PM,70.7,61.3,72,29.84,10.0,SSW,8.1,17.3,N/A,,Mostly Cloudy,210,2013-08-02 16:14:00
12:34 PM,70.3,61.3,73,29.84,10.0,SW,12.7,16.1,N/A,,Scattered Clouds,220,2013-08-02 16:34:00
12:55 PM,70.5,61.9,74,29.84,10.0,WSW,11.5,-,N/A,,Scattered Clouds,250,2013-08-02 16:55:00
1:15 PM,70.5,62.4,75,29.83,10.0,SW,11.5,-,N/A,,Mostly Cloudy,230,2013-08-02 17:15:00
1:35 PM,69.8,62.8,78,29.83,10.0,SW,11.5,-,N/A,,Overcast,220,2013-08-02 17:35:00
1:55 PM,71.2,63.5,76,29.84,10.0,WSW,11.5,18.4,N/A,,Overcast,240,2013-08-02 17:55:00
2:15 PM,70.0,62.6,77,29.84,10.0,WSW,10.4,17.3,N/A,,Overcast,240,2013-08-02 18:15:00
2:35 PM,70.3,62.4,76,29.84,10.0,WSW,11.5,-,N/A,,Mostly Cloudy,250,2013-08-02 18:35:00
2:55 PM,71.4,62.6,74,29.84,10.0,WSW,10.4,-,N/A,,Scattered Clouds,250,2013-08-02 18:55:00
3:15 PM,71.4,62.1,72,29.85,10.0,WSW,9.2,-,N/A,,Mostly Cloudy,250,2013-08-02 19:15:00
3:36 PM,71.8,62.6,73,29.85,10.0,West,9.2,-,N/A,,Scattered Clouds,260,2013-08-02 19:36:00
3:56 PM,71.2,63.0,75,29.85,10.0,WSW,10.4,-,N/A,,Scattered Clouds,250,2013-08-02 19:56:00
4:16 PM,71.6,62.1,72,29.85,10.0,WSW,8.1,-,N/A,,Scattered Clouds,250,2013-08-02 20:16:00
4:36 PM,72.0,61.5,70,29.85,10.0,WSW,6.9,-,N/A,,Scattered Clouds,250,2013-08-02 20:36:00
4:56 PM,73.0,60.3,64,29.86,10.0,West,8.1,-,N/A,,Clear,280,2013-08-02 20:56:00
5:16 PM,73.4,59.4,61,29.85,10.0,West,6.9,-,N/A,,Clear,260,2013-08-02 21:16:00
5:36 PM,73.0,58.6,61,29.85,10.0,WNW,5.8,-,N/A,,Clear,290,2013-08-02 21:36:00
5:56 PM,73.2,57.6,58,29.84,10.0,West,6.9,-,N/A,,Clear,260,2013-08-02 21:56:00
6:11 PM,73.6,56.5,55,29.84,10.0,West,5.8,-,N/A,,Clear,280,2013-08-02 22:11:00
6:32 PM,73.4,59.2,61,29.84,10.0,WSW,4.6,-,N/A,,Clear,250,2013-08-02 22:32:00
6:52 PM,72.3,59.0,63,29.85,10.0,West,3.5,-,N/A,,Clear,260,2013-08-02 22:52:00
7:12 PM,71.2,60.4,69,29.85,10.0,West,3.5,-,N/A,,Clear,260,2013-08-02 23:12:00
7:32 PM,70.0,61.2,73,29.85,10.0,WSW,3.5,-,N/A,,Clear,250,2013-08-02 23:32:00
7:52 PM,68.9,61.0,76,29.86,10.0,WSW,3.5,-,N/A,,Clear,240,2013-08-02 23:52:00
8:12 PM,68.0,61.9,81,29.86,10.0,Calm,Calm,-,N/A,,Clear,0,2013-08-03 00:12:00
8:32 PM,67.1,62.8,86,29.88,10.0,Calm,Calm,-,N/A,,Clear,0,2013-08-03 00:32:00
8:52 PM,66.7,63.0,88,29.88,10.0,Calm,Calm,-,N/A,,Clear,0,2013-08-03 00:52:00
9:12 PM,66.0,62.4,88,29.89,10.0,Calm,Calm,-,N/A,,Clear,0,2013-08-03 01:12:00
9:32 PM,66.0,61.7,86,29.89,10.0,Calm,Calm,-,N/A,,Scattered Clouds,0,2013-08-03 01:32:00
9:53 PM,63.7,60.4,89,29.90,10.0,Calm,Calm,-,N/A,,Scattered Clouds,0,2013-08-03 01:53:00
10:13 PM,63.3,60.1,89,29.91,10.0,Calm,Calm,-,N/A,,Scattered Clouds,0,2013-08-03 02:13:00
10:33 PM,61.9,59.4,91,29.92,5.0,Calm,Calm,-,N/A,,Clear,0,2013-08-03 02:33:00
10:53 PM,61.0,58.6,92,29.93,10.0,Calm,Calm,-,N/A,,Clear,0,2013-08-03 02:53:00
11:13 PM,61.0,58.8,93,29.93,7.0,Calm,Calm,-,N/A,,Clear,0,2013-08-03 03:13:00
11:33 PM,60.6,58.6,93,29.93,7.0,Calm,Calm,-,N/A,,Clear,0,2013-08-03 03:33:00
11:53 PM,59.9,57.9,93,29.93,5.0,Calm,Calm,-,N/A,,Clear,0,2013-08-03 03:53:00